Location: Baia de Cri?
(46.1667°N, 22.7167°E)
Time: 22:29:07
(UTC+00:00)

GRACE-FO 1 - Pass Details

Date: 15 January 2026
Orbit: 448 x 461 km, 89.0° (Epoch: 14 February)

Event Time Altitude Azimuth Distance (km) Brightness Sun altitude
Rises 05:23:42 0° 177° (S) 2,446 8.5 -7.7°
Reaches altitude 10° 05:25:44 10° 177° (S) 1,581 7.5 -7.3°
Maximum altitude 05:29:09 86° 88° (E) 461 4.5 -6.8°
Drops below altitude 10° 05:32:38 10° 0° (N) 1,604 7.0 -6.2°
Sets 05:34:42 0° 0° (N) 2,486 7.9 -5.9°
